User: anonymous
Location: Stamford Observatory
(41.1241°N, 73.5498°W)
Time: 21:48:46
(UTC-04:00)
Language:

IRS-P3 - Orbit

View from above orbital plane
View from above orbital plane
View from above satellite
View from above satellite

Ground track
Ground track

The orbit data is extracted from the following two-line orbital elements,

1 23827U 96017A   14243.90813985  .00000069  00000-0  50349-4 0   847
2 23827 098.6262 181.4226 0004565 107.4063 294.9180 14.22218791957373
Epoch (UTC): 31 August 2014 21:47:43
Eccentricity: 0.0004565
inclination: 98.6262°
perigee height: 814 km
apogee height: 821 km
right ascension of ascending node: 181.4226°
argument of perigee: 107.4063°
revolutions per day: 14.22218791
mean anomaly at epoch: 294.9180°
orbit number at epoch: 95737

The dashed part of the orbit path shows where the satellite is in the earth's shadow,  

DLR